FREGAT R/B, 43509

Orbit data source: Space-Track

FREGAT R/B, 43509 is space debris in MEO originally from a launch on Sat, 16 Jun 2018 UTC launched from the Plesetsk Missile And Space Complex (PKMTR). Debris objects in space refer to the collection of defunct objects orbiting the Earth. Examples of debris include non-operational satellites, rocket bodies, and fragments generated from explosions, collisions, or faulty payload assembly.

Loading next visibility...
Identifier
43509, 2018-053B
Orbit
MEO
Country
Flag of CISCIS
Related business
Manufacturer
Lavochkin
Mission
Spacecraft
Bus & Motor
FREGAT, Unknown motor
Mass
1,000 kg wet, 1,000 kg dry
Launch date (UTC)
2018-06-16 (7 years ago)
Launch vehicle
Unknown
Launch site
Plesetsk Missile And Space Complex (PKMTR)
Object type
Payload
Rocket body
Debris
Shape & HBR
Cyl, 1.7 m
Radar Cross Section
8.354 m², Large (>1 m²)

Expand to show TLE details & history
Last TLE update: 18 hours ago

TLE from 18 hours ago
0 FREGAT R/B
1 43509U 18053B   25291.45693748  .00000035  00000-0  00000-0 0  9991
2 43509  65.4590  85.7756 0095864  91.4388 269.6653  2.09215781 56086
Epoch: 2025-10-18T10:57Z
TLE epoch observation values (Epoch: 2025-10-18T10:57:59.398Z)
Latitude
0.00004°
Longitude
-105.92664°
Altitude
19,449.339 km
Speed
3.928 km/s
True Right ascension
05h 43m 02s
True Declination
0° 00' 00"
Sunlit
Object was in daylight at epoch
Visualization orbit readout
Latitude
Unknown
Longitude
Unknown
Altitude
Unknown
Speed
Unknown
Apparent Right ascension
Unknown
Apparent Declination
Unknown
Sunlit
N/A
Visualization observer readout
Local Sidereal Time
23:35:02
Azimuth
Unknown
Elevation
Unknown
Doppler factor
Unknown
Orbital elements
Apogee altitude
19,691.944 km
Perigee altitude
19,196.854 km
Semi-major axis
25,822.536 km
Eccentricity
0.00959
Inclination
65.459°
RAAN
85.7756°
Arg. of periapsis
91.4388°
True anomaly
268.56694°
Mean anomaly
269.6653°
Eccentric anomaly
269.11611°
Mean motion
0.52305 °/min
Orbital period
688.27 mins
BSTAR
0
Loading maneuver chart data...
Computing Atmospheric mass density...
Loading historical data...
Loading historical data...
Loading historical data...
Loading historical data...
Loading historical data...
Loading historical data...
Loading historical data...
Other satellites on launch #53 in the year 2018 (2018-06-16 UTC)

Documentation

Showing up to 5 results
|